EW7175 Weather Reports


time (UTC)temp
C
wind
direction
speed
KPH
gust
KPH
rain 1hr
cm
rain 24hr
cm
rain mn
cm
humidity
%
barometer
mb
20260510033100 25 80 0.0 0.0 0.00 0.00 0.00 87 1009.9
20260510031551 25 102 0.0 0.0 0.00 0.00 0.00 89 1009.8
20260510030048 25 110 0.0 0.0 0.00 0.00 0.00 90 1009.7
20260510024547 23 190 0.0 0.0 0.00 0.00 0.00 87 1009.3
20260510023042 23 192 0.0 0.0 0.00 0.00 0.00 85 1008.6
20260510021548 23 192 0.0 0.0 0.00 0.00 0.00 83 1008.2
20260510020042 24 193 0.0 0.0 0.00 0.00 0.00 79 1007.7
20260510014543 24 193 0.0 0.0 0.00 0.00 0.00 76 1007.2
20260510013047 25 193 0.0 0.0 0.00 0.00 0.00 73 1007.2
20260510011544 25 193 0.0 0.0 0.00 0.00 0.00 68 1007.2
20260510010040 26 102 0.0 0.0 0.00 0.00 0.00 69 1007.4
20260510004543 28 93 0.0 0.0 0.00 0.00 0.00 61 1007.1
20260510003038 29 159 0.0 0.0 0.00 0.00 0.00 58 1006.6
20260510001542 30 166 0.0 9.7 0.00 0.00 0.00 67 1006.3
20260510000047 31 306 0.0 0.0 0.00 0.00 0.00 64 1006.3
20260509234537 31 306 0.0 0.0 0.00 0.00 0.00 63 1006.1
20260509233036 31 306 0.0 0.0 0.00 0.00 0.00 63 1006.2
20260509231540 31 306 0.0 0.0 0.00 0.00 0.00 64 1006.1
20260509230036 32 306 0.0 1.6 0.00 0.00 0.00 60 1006.0
20260509224535 32 306 0.0 3.2 0.00 0.00 0.00 56 1005.9
20260509223033 32 309 1.6 4.8 0.00 0.00 0.00 56 1006.0
20260509221533 33 284 1.6 11.3 0.00 0.00 0.00 54 1005.8
20260509220032 33 286 1.6 6.4 0.00 0.00 0.00 56 1005.9
20260509214527 33 302 1.6 8.0 0.00 0.00 0.00 56 1005.8
20260509213029 32 264 4.8 11.3 0.00 0.00 0.00 59 1005.8
20260509211521 32 244 0.0 4.8 0.00 0.00 0.00 59 1006.0
20260509210019 32 156 1.6 4.8 0.00 0.00 0.00 61 1006.1
20260509204515 32 161 0.0 3.2 0.00 0.00 0.00 64 1006.4
20260509203016 31 258 0.0 0.0 0.00 0.00 0.00 63 1006.6
20260509201509 32 292 0.0 0.0 0.00 0.00 0.00 63 1006.7
20260509200008 31 271 0.0 0.0 0.00 0.00 0.00 66 1006.9
20260509194507 31 317 0.0 0.0 0.00 0.00 0.00 66 1007.0
20260509193003 31 20 0.0 0.0 0.00 0.00 0.00 66 1007.2
20260509191608 30 307 3.2 8.0 0.00 0.00 0.00 69 1007.5
20260509190058 30 299 0.0 0.0 0.00 0.00 0.00 69 1007.4
20260509184601 30 360 0.0 0.0 0.00 0.00 0.00 68 1007.7
20260509183059 30 235 0.0 0.0 0.00 0.00 0.00 70 1008.0
20260509181554 30 166 0.0 0.0 0.00 0.00 0.00 72 1008.1
20260509180052 29 190 0.0 0.0 0.00 0.00 0.00 73 1008.4
20260509174614 29 162 0.0 0.0 0.00 0.00 0.00 74 1008.7
20260509173053 29 178 0.0 0.0 0.00 0.00 0.00 75 1008.5
20260509171547 29 134 0.0 0.0 0.00 0.00 0.00 76 1008.4
20260509170044 28 163 0.0 0.0 0.00 0.00 0.00 76 1008.5
20260509164539 27 184 0.0 0.0 0.00 0.00 0.00 83 1008.4
20260509163040 26 177 0.0 0.0 0.00 0.00 0.00 85 1008.5
20260509161534 26 316 0.0 0.0 0.00 0.00 0.00 84 1008.8
20260509160033 26 65 0.0 0.0 0.00 0.00 0.00 85 1009.0
20260509154531 26 65 0.0 0.0 0.00 0.00 0.00 85 1009.0
20260509153042 26 65 0.0 0.0 0.00 0.00 0.00 86 1009.2
20260509151528 25 65 0.0 0.0 0.00 0.00 0.00 87 1009.0
20260509150025 25 65 0.0 0.0 0.00 0.00 0.00 88 1008.8
20260509144529 25 66 0.0 0.0 0.00 0.00 0.00 91 1008.7
20260509143021 25 66 0.0 0.0 0.00 0.00 0.00 92 1008.5
20260509141519 24 66 0.0 0.0 0.00 0.00 0.00 93 1008.4
20260509140017 24 67 0.0 0.0 0.00 0.00 0.00 94 1008.1
20260509134517 23 67 0.0 0.0 0.00 0.00 0.00 95 1008.4
20260509133015 23 67 0.0 0.0 0.00 0.00 0.00 95 1008.6
20260509131514 23 42 0.0 0.0 0.00 0.00 0.00 96 1009.0
20260509130027 23 42 0.0 0.0 0.00 0.00 0.00 96 1009.1
20260509124509 23 42 0.0 0.0 0.00 0.00 0.00 96 1008.9
20260509123008 23 34 0.0 0.0 0.00 0.00 0.00 96 1008.8
20260509121511 23 34 0.0 0.0 0.00 0.00 0.00 96 1008.5
20260509120007 23 30 0.0 0.0 0.00 0.00 0.00 95 1008.2
20260509114507 23 30 0.0 0.0 0.00 0.00 0.00 95 1008.2
20260509113006 23 30 0.0 0.0 0.00 0.00 0.00 95 1008.5
20260509111506 23 30 0.0 0.0 0.00 0.00 0.00 96 1008.6
20260509110005 23 30 0.0 0.0 0.00 0.00 0.00 96 1008.6
20260509104509 23 24 0.0 0.0 0.00 0.00 0.00 95 1008.5
20260509103004 23 209 0.0 0.0 0.00 0.00 0.00 95 1008.3
20260509101509 23 209 0.0 0.0 0.00 0.00 0.00 95 1008.0
20260509100002 23 205 0.0 0.0 0.00 0.00 0.00 95 1007.4
20260509094501 23 205 0.0 0.0 0.00 0.00 0.00 95 1007.3
20260509093100 23 205 0.0 0.0 0.00 0.00 0.00 95 1007.9
20260509091607 23 205 0.0 0.0 0.00 0.00 0.00 95 1008.0
20260509090106 23 205 0.0 0.0 0.00 0.00 0.00 94 1008.2
20260509084602 23 205 0.0 0.0 0.00 0.00 0.00 94 1008.1
20260509083102 23 205 0.0 0.0 0.00 0.00 0.00 94 1008.3
20260509081557 23 205 0.0 0.0 0.00 0.00 0.00 94 1008.1
20260509080059 23 205 0.0 0.0 0.00 0.00 0.00 94 1007.8
20260509074557 23 204 0.0 0.0 0.00 0.00 0.00 94 1008.0
20260509073055 23 205 0.0 0.0 0.00 0.00 0.00 94 1008.0
20260509071553 23 205 0.0 0.0 0.00 0.00 0.00 94 1008.1
20260509070052 23 205 0.0 0.0 0.00 0.00 0.00 94 1008.0
20260509064550 23 205 0.0 0.0 0.00 0.00 0.00 94 1008.2
20260509063048 23 205 0.0 0.0 0.00 0.00 0.00 94 1008.3
20260509061547 23 205 0.0 0.0 0.00 0.00 0.00 94 1008.5
20260509060059 23 205 0.0 0.0 0.00 0.00 0.00 94 1008.7
20260509054540 23 205 0.0 0.0 0.00 0.00 0.00 94 1008.6
20260509053059 23 205 0.0 0.0 0.00 0.00 0.00 94 1008.8
20260509051540 23 205 0.0 0.0 0.00 0.00 0.00 94 1008.6
20260509050027 23 205 0.0 0.0 0.00 0.00 0.00 94 1008.7
20260509044526 23 204 0.0 0.0 0.00 0.00 0.00 93 1008.7
20260509043027 23 204 0.0 0.0 0.00 0.00 0.00 93 1008.9
20260509041525 23 204 0.0 0.0 0.00 0.00 0.00 93 1008.8
20260509040030 22 204 0.0 0.0 0.00 0.00 0.00 93 1008.4
20260509034524 22 54 0.0 0.0 0.00 0.00 0.00 93 1008.3